Погода в Шелаеве

Россия / Белгородская область     50°07′16″N   38°04′16″E
темп.,
°C
ветер,
м/с
пор.,
м/с
влажн.,
%
обл.,
%
осадки,
мм/ч
давл.,
гПа
погр.,
м
1 декабря, ср
ср100:00+2зюз2370100 0.0 997116
03:00+1зсз4773100 0.0 996355
06:00−1зсз4107694 0.0 997375
09:00−1зюз410775 0.0 999487
12:00+2зюз71163100 0.0 1000894
15:00+2юз5105998 0.0 9991236
18:000юз41096100 0.1 1000665
21:00−1з4893100 0.2 1002412
2 декабря, чт
чт200:000зсз5777100 0.0 1004831
03:000з477194 0.0 1006584
06:00−1з38829 0.0 1009455
09:00−2зюз48785 0.0 1011373
12:00+1юз685326 0.0 1011616
15:00+2ююз6115573 0.0 1011646
18:00+2ю6146799 0.0 1011518
21:00+2ююз6157741 0.0 1011461
3 декабря, пт
пт300:00+2ююз6159287 0.0 1011430
03:00+3ююз61392100 0.0 1012391
06:00+5ююз51292100 0.1 1011389
09:00+5ю61490100 0.1 1012517
12:00+7ю71581100 0.0 1011593
15:00+8ю8157649 0.0 1010621
18:00+8ю8178293 0.0 1010667
21:00+8ю81784100 0.0 1010637
4 декабря, сб
сб400:00+8ю81689100 0.0 1009628
03:00+8ююз71486100 0.1 1009637
06:00+8ююз51190100 0.1 1009511
09:00+6с4689100 0.4 1011287
12:00+5с3490100 0.8 1012282
15:00+4ссв3491100 1.5 1012300
18:00+3ссв4593100 0.6 1013313
21:00+2ссв4796100 2.9 1013316
5 декабря, вс
вс500:00+3св4895100 4.5 1013312
03:00+3св5995100 7.9 1012349
06:00+3в51093100 0.1 1011391
09:00+4всв5894100 0.9 1010248
12:00+6в61078100 0.1 1009494
15:00+7вюв4974100 0.1 1008443
18:00+6вюв4880100 0.0 1008288
21:00+6юв4992100 0.8 1008375